Simultaneous Nadir Overpasses (SNOs) Predictions

Prediction of SNOs between NOAA-15 and METOP-C Satellite Orbit:

Table of predicted SNOs for the next 14.0 days since TLE Epoch: 3/30/2024
Index Date (NOAA-15) Time (NOAA-15) Lat,Lon (NOAA-15) SZA (NOAA-15 ) Date (METOP-C) Time (METOP-C) Lat,Lon (METOP-C) SZA (METOP-C ) Distance(km) Time Diff (sec)
1 04/05/2024 21:44:38 -81.08, 71.84 103.62 04/05/2024 21:43:26 -81.07, 71.81 103.65 0.77 72
2 04/05/2024 22:35:12 81.07,-120.75 76.38 04/05/2024 22:34:06 81.07,-120.76 76.35 0.24 66
3 04/05/2024 23:25:38 -81.07, 46.64 103.64 04/05/2024 23:24:47 -81.08, 46.66 103.66 0.59 51
4 04/06/2024 00:16:12 81.07,-145.95 76.36 04/06/2024 00:15:27 81.08,-145.91 76.35 1.38 45
5 04/06/2024 01:06:38 -81.07, 21.44 103.66 04/06/2024 01:06:08 -81.08, 21.50 103.66 1.94 30
6 04/06/2024 01:57:13 81.09,-171.52 76.31 04/06/2024 01:56:49 81.07,-171.43 76.30 1.92 24
7 04/06/2024 02:47:39 -81.09, -4.13 103.71 04/06/2024 02:47:30 -81.08, -4.02 103.71 2.15 9
8 04/06/2024 03:38:13 81.08, 163.28 76.29 04/06/2024 03:38:10 81.08, 163.42 76.30 2.32 3
9 04/06/2024 04:28:39 -81.08, -29.33 103.73 04/06/2024 04:28:51 -81.08, -29.17 103.71 2.78 12
10 04/06/2024 05:19:13 81.08, 138.08 76.27 04/06/2024 05:19:31 81.09, 138.26 76.30 3.29 18
11 04/06/2024 06:09:39 -81.08, -54.53 103.75 04/06/2024 06:10:13 -81.08, -54.70 103.76 2.84 34
12 04/06/2024 07:00:13 81.08, 112.88 76.24 04/06/2024 07:00:53 81.08, 112.74 76.25 2.43 40
13 04/06/2024 07:50:39 -81.08, -79.73 103.78 04/06/2024 07:51:34 -81.08, -79.85 103.76 2.10 55
14 04/06/2024 08:41:13 81.08, 87.68 76.22 04/06/2024 08:42:14 81.09, 87.59 76.25 2.09 61



Historial Predications of SNOs between NOAA-15 and METOP-C
